Location: G�migny
(47.9646°N, 1.6950°E)
Time: 12:57:37
(UTC+00:00)

ATLAS CENTAUR R/B - Pass Details

Date: 23 October 2019
Orbit: 456 x 692 km, 64.6° (Epoch: 31 October)

Event Time Altitude Azimuth Distance (km) Brightness Sun altitude
Rises 20:08:39 0° 322° (NW) 2,923 5.8 -33.4°
Reaches altitude 10° 20:11:01 10° 324° (NW) 1,974 4.8 -33.8°
Enters shadow 20:12:14 18° 325° (NW) 1,501 4.0 -33.9°
